W7TJC Weather Reports


time (UTC)temp
C
wind
direction
speed
KPH
gust
KPH
rain 1hr
cm
rain 24hr
cm
rain mn
cm
humidity
%
barometer
mb
20260504001515 26 93 0.0 0.0 0.00 0.00 0.00 35 1011.1
20260504001011 26 48 4.8 4.8 0.00 0.00 0.00 35 1011.4
20260504000509 26 27 1.6 3.2 0.00 0.00 0.00 35 1011.3
20260504000006 26 17 3.2 3.2 0.00 0.00 0.00 35 1011.4
20260503235504 26 294 1.6 1.6 0.00 0.00 0.00 34 1011.5
20260503235000 26 103 0.0 1.6 0.00 0.00 0.00 37 1011.5
20260503234458 26 70 0.0 1.6 0.00 0.00 0.00 36 1011.5
20260503233956 26 34 1.6 1.6 0.00 0.00 0.00 36 1011.6
20260503233452 26 16 1.6 1.6 0.00 0.00 0.00 36 1011.7
20260503232948 26 72 0.0 1.6 0.00 0.00 0.00 35 1011.5
20260503232446 26 64 3.2 3.2 0.00 0.00 0.00 35 1011.6
20260503231943 26 316 1.6 1.6 0.00 0.00 0.00 36 1011.7
20260503231441 26 17 1.6 1.6 0.00 0.00 0.00 35 1011.9
20260503230937 26 273 1.6 3.2 0.00 0.00 0.00 36 1011.9
20260503230434 26 52 0.0 0.0 0.00 0.00 0.00 36 1012.0
20260503225931 26 324 3.2 3.2 0.00 0.00 0.00 36 1012.2
20260503225428 26 342 1.6 1.6 0.00 0.00 0.00 37 1012.1
20260503224924 26 323 3.2 3.2 0.00 0.00 0.00 37 1012.3
20260503224421 26 65 0.0 0.0 0.00 0.00 0.00 35 1012.4
20260503223919 26 306 1.6 3.2 0.00 0.00 0.00 36 1012.3
20260503223416 26 195 1.6 1.6 0.00 0.00 0.00 37 1012.2
20260503222916 26 184 1.6 1.6 0.00 0.00 0.00 36 1012.2
20260503222415 26 51 1.6 3.2 0.00 0.00 0.00 37 1012.5
20260503221913 26 82 1.6 1.6 0.00 0.00 0.00 38 1012.7
20260503221411 26 348 4.8 4.8 0.00 0.00 0.00 36 1012.4
20260503220907 26 24 1.6 3.2 0.00 0.00 0.00 37 1012.4
20260503220404 26 35 1.6 1.6 0.00 0.00 0.00 38 1012.7
20260503215901 26 82 1.6 1.6 0.00 0.00 0.00 39 1012.8
20260503215358 26 85 0.0 0.0 0.00 0.00 0.00 38 1012.7
20260503214855 26 326 1.6 4.8 0.00 0.00 0.00 38 1012.9
20260503214353 26 329 1.6 1.6 0.00 0.00 0.00 38 1012.8
20260503213850 26 127 0.0 1.6 0.00 0.00 0.00 37 1012.8
20260503213348 26 204 0.0 0.0 0.00 0.00 0.00 39 1013.0
20260503212844 26 186 1.6 1.6 0.00 0.00 0.00 37 1012.9
20260503212342 26 286 1.6 3.2 0.00 0.00 0.00 35 1013.2
20260503211839 26 24 1.6 3.2 0.00 0.00 0.00 36 1013.1
20260503211336 27 83 3.2 3.2 0.00 0.00 0.00 35 1013.1
20260503210831 27 42 3.2 3.2 0.00 0.00 0.00 37 1013.2
20260503210329 27 311 3.2 3.2 0.00 0.00 0.00 37 1013.2
20260503205824 27 47 0.0 0.0 0.00 0.00 0.00 37 1013.2
20260503205320 27 54 0.0 0.0 0.00 0.00 0.00 38 1013.1
20260503204817 26 59 3.2 4.8 0.00 0.00 0.00 39 1013.4
20260503204315 26 76 1.6 1.6 0.00 0.00 0.00 39 1013.4
20260503203812 26 38 1.6 1.6 0.00 0.00 0.00 41 1013.5
20260503203309 25 7 1.6 1.6 0.00 0.00 0.00 43 1013.5
20260503202806 25 37 1.6 1.6 0.00 0.00 0.00 41 1013.3
20260503202304 26 84 0.0 0.0 0.00 0.00 0.00 43 1013.7
20260503201801 25 27 3.2 3.2 0.00 0.00 0.00 40 1013.6
20260503201258 25 76 0.0 1.6 0.00 0.00 0.00 44 1013.7
20260503200756 25 326 3.2 4.8 0.00 0.00 0.00 43 1013.9
20260503200251 26 48 1.6 1.6 0.00 0.00 0.00 41 1013.8
20260503195749 25 17 1.6 1.6 0.00 0.00 0.00 41 1013.9
20260503195245 25 72 0.0 1.6 0.00 0.00 0.00 41 1013.9
20260503194743 25 61 0.0 1.6 0.00 0.00 0.00 44 1014.1
20260503194239 25 41 1.6 1.6 0.00 0.00 0.00 45 1014.0
20260503193735 25 336 0.0 1.6 0.00 0.00 0.00 43 1014.2
20260503193231 25 63 1.6 1.6 0.00 0.00 0.00 44 1014.1
20260503192727 25 50 3.2 3.2 0.00 0.00 0.00 43 1014.5
20260503192222 25 83 3.2 3.2 0.00 0.00 0.00 43 1014.5
20260503191719 24 52 1.6 1.6 0.00 0.00 0.00 46 1014.4
20260503191216 23 19 3.2 3.2 0.00 0.00 0.00 45 1014.4
20260503190713 23 337 4.8 4.8 0.00 0.00 0.00 45 1014.6
20260503190210 23 73 0.0 0.0 0.00 0.00 0.00 45 1014.7
20260503185708 23 349 3.2 3.2 0.00 0.00 0.00 46 1014.5
20260503185202 22 347 1.6 1.6 0.00 0.00 0.00 47 1014.7
20260503184657 22 41 1.6 1.6 0.00 0.00 0.00 47 1014.7
20260503184154 22 14 3.2 3.2 0.00 0.00 0.00 47 1014.8
20260503183650 22 81 1.6 1.6 0.00 0.00 0.00 48 1014.8
20260503183148 22 345 1.6 3.2 0.00 0.00 0.00 48 1015.0
20260503182646 22 79 0.0 1.6 0.00 0.00 0.00 48 1014.7
20260503182144 22 70 1.6 1.6 0.00 0.00 0.00 50 1014.9
20260503181640 22 51 0.0 0.0 0.00 0.00 0.00 50 1014.9
20260503181137 22 322 1.6 3.2 0.00 0.00 0.00 49 1014.9
20260503180634 22 347 1.6 1.6 0.00 0.00 0.00 52 1015.1
20260503180132 22 14 3.2 3.2 0.00 0.00 0.00 52 1015.1
20260503175629 21 85 0.0 0.0 0.00 0.00 0.00 53 1014.9
20260503175126 21 57 0.0 1.6 0.00 0.00 0.00 52 1015.1
20260503174622 21 329 1.6 1.6 0.00 0.00 0.00 55 1015.1
20260503174120 21 295 1.6 1.6 0.00 0.00 0.00 55 1015.3
20260503173614 20 82 0.0 0.0 0.00 0.00 0.00 56 1015.2
20260503173111 20 74 0.0 1.6 0.00 0.00 0.00 56 1015.4
20260503172608 20 261 1.6 1.6 0.00 0.00 0.00 56 1015.3
20260503172106 20 315 4.8 8.0 0.00 0.00 0.00 56 1015.2
20260503171602 20 342 1.6 1.6 0.00 0.00 0.00 56 1015.0
20260503171100 20 272 1.6 1.6 0.00 0.00 0.00 55 1015.1
20260503170555 20 251 3.2 3.2 0.00 0.00 0.00 56 1015.2
20260503150948 16 329 1.6 1.6 0.00 0.00 0.00 68 1015.5
20260503150445 16 352 1.6 3.2 0.00 0.00 0.00 68 1015.5
20260503131338 13 130 0.0 0.0 0.00 0.00 0.00 77 1015.0
20260503130835 13 56 0.0 0.0 0.00 0.00 0.00 74 1015.0
20260503130333 13 72 0.0 0.0 0.00 0.00 0.00 74 1014.8
20260503110726 11 115 0.0 0.0 0.00 0.00 0.00 79 1015.3
20260503110224 11 118 0.0 0.0 0.00 0.00 0.00 79 1015.4
20260503100149 12 130 0.0 0.0 0.00 0.00 0.00 77 1015.3
20260503090109 12 130 0.0 0.0 0.00 0.00 0.00 81 1015.8
20260503081544 12 143 0.0 0.0 0.00 0.00 0.00 76 1015.8
20260503081042 12 130 0.0 0.0 0.00 0.00 0.00 76 1015.9
20260503080538 13 143 0.0 0.0 0.00 0.00 0.00 77 1015.7
20260503072512 13 152 0.0 0.0 0.00 0.00 0.00 75 1015.9
20260503072009 13 38 0.0 0.0 0.00 0.00 0.00 73 1015.7
20260503071506 13 38 0.0 0.0 0.00 0.00 0.00 74 1015.4
20260503071002 13 38 0.0 0.0 0.00 0.00 0.00 75 1015.8
20260503070459 13 38 0.0 0.0 0.00 0.00 0.00 73 1015.7
20260503054917 16 43 0.0 0.0 0.00 0.00 0.00 60 1015.2
20260503054413 16 331 0.0 0.0 0.00 0.00 0.00 61 1015.1
20260503053911 16 32 0.0 1.6 0.00 0.00 0.00 61 1015.3
20260503053409 16 37 1.6 1.6 0.00 0.00 0.00 61 1015.3
20260503052905 16 57 0.0 1.6 0.00 0.00 0.00 61 1015.1
20260503052402 16 13 0.0 0.0 0.00 0.00 0.00 61 1015.2
20260503051858 16 45 1.6 1.6 0.00 0.00 0.00 61 1015.2
20260503051354 16 45 0.0 0.0 0.00 0.00 0.00 61 1015.2
20260503050852 16 13 0.0 0.0 0.00 0.00 0.00 61 1015.3
20260503050348 16 72 0.0 0.0 0.00 0.00 0.00 62 1015.2
20260503045845 16 71 0.0 0.0 0.00 0.00 0.00 62 1015.0
20260503045343 16 29 1.6 1.6 0.00 0.00 0.00 61 1015.4
20260503044839 16 21 0.0 1.6 0.00 0.00 0.00 61 1015.1
20260503044336 16 38 0.0 1.6 0.00 0.00 0.00 61 1015.1
20260503043833 16 1 1.6 1.6 0.00 0.00 0.00 61 1015.0
20260503043330 16 50 0.0 1.6 0.00 0.00 0.00 61 1015.0
20260503042826 17 46 1.6 1.6 0.00 0.00 0.00 61 1015.1
20260503042324 17 43 1.6 1.6 0.00 0.00 0.00 60 1014.9
20260503041819 17 40 0.0 0.0 0.00 0.00 0.00 60 1014.9
20260503041317 17 50 0.0 1.6 0.00 0.00 0.00 59 1014.8
20260503040815 17 72 0.0 0.0 0.00 0.00 0.00 59 1014.7
20260503040312 17 57 0.0 0.0 0.00 0.00 0.00 58 1014.7
20260503035809 17 354 1.6 1.6 0.00 0.00 0.00 56 1014.7
20260503035306 18 17 0.0 0.0 0.00 0.00 0.00 55 1014.7
20260503034803 18 39 0.0 0.0 0.00 0.00 0.00 55 1014.6
20260503034300 18 63 0.0 0.0 0.00 0.00 0.00 54 1014.6
20260503033757 18 63 0.0 0.0 0.00 0.00 0.00 53 1014.2
20260503033255 18 64 0.0 0.0 0.00 0.00 0.00 52 1014.3
20260503032753 19 51 0.0 0.0 0.00 0.00 0.00 50 1014.2
20260503032252 20 66 1.6 1.6 0.00 0.00 0.00 49 1014.4
20260503031748 20 56 1.6 1.6 0.00 0.00 0.00 46 1014.1
20260503031246 20 5 0.0 1.6 0.00 0.00 0.00 46 1014.1
20260503030742 20 355 1.6 1.6 0.00 0.00 0.00 45 1014.1
20260503030239 20 70 1.6 1.6 0.00 0.00 0.00 46 1013.9
20260503025735 20 44 1.6 1.6 0.00 0.00 0.00 45 1013.9
20260503025233 20 358 1.6 1.6 0.00 0.00 0.00 45 1014.2
20260503024730 21 354 1.6 1.6 0.00 0.00 0.00 45 1013.9
20260503024227 21 45 1.6 1.6 0.00 0.00 0.00 46 1014.0
20260503023724 21 52 0.0 1.6 0.00 0.00 0.00 46 1013.8
20260503023221 21 73 4.8 8.0 0.00 0.00 0.00 46 1014.1
20260503022717 21 71 3.2 3.2 0.00 0.00 0.00 46 1013.9
20260503022217 21 65 0.0 0.0 0.00 0.00 0.00 47 1013.9
20260503021714 21 342 3.2 3.2 0.00 0.00 0.00 46 1014.0
20260503021210 21 61 1.6 1.6 0.00 0.00 0.00 47 1013.8
20260503020708 21 342 1.6 3.2 0.00 0.00 0.00 47 1014.1
20260503020205 21 34 1.6 3.2 0.00 0.00 0.00 47 1014.0
20260503015702 21 36 1.6 1.6 0.00 0.00 0.00 49 1014.1
20260503015159 21 24 1.6 3.2 0.00 0.00 0.00 49 1014.0
20260503014654 21 63 3.2 3.2 0.00 0.00 0.00 51 1014.1
20260503014153 21 40 1.6 1.6 0.00 0.00 0.00 51 1014.0
20260503013649 21 49 0.0 1.6 0.00 0.00 0.00 52 1014.1
20260503013147 21 63 0.0 1.6 0.00 0.00 0.00 53 1014.3
20260503012644 21 358 1.6 1.6 0.00 0.00 0.00 52 1014.0
20260503012141 21 55 1.6 1.6 0.00 0.00 0.00 53 1014.2
20260503011637 21 43 1.6 1.6 0.00 0.00 0.00 53 1014.3
20260503011135 21 349 1.6 3.2 0.00 0.00 0.00 52 1014.1
20260503010631 22 33 1.6 1.6 0.00 0.00 0.00 52 1014.1
20260503010128 22 76 1.6 3.2 0.00 0.00 0.00 50 1014.2
20260503005625 22 69 1.6 1.6 0.00 0.00 0.00 52 1014.2
20260503005122 22 13 3.2 4.8 0.00 0.00 0.00 50 1014.0
20260503004618 22 52 1.6 1.6 0.00 0.00 0.00 49 1014.1
20260503004117 22 67 0.0 0.0 0.00 0.00 0.00 49 1014.1
20260503003614 22 89 1.6 3.2 0.00 0.00 0.00 47 1014.2
20260503003111 22 321 1.6 3.2 0.00 0.00 0.00 46 1014.1
20260503002608 22 80 1.6 1.6 0.00 0.00 0.00 46 1014.3
20260503002104 22 50 1.6 3.2 0.00 0.00 0.00 46 1014.3